Probability
0 0 0 0 0 0 0 0 0 0 0 0 0 0 0 0 0 0 0 0 0 0 0 0 0 0 0 0 0 0 0 0 0 0 0 0 0 0 0 0 0 0 0 0
0 0 0 0 0 0 0 0 0 0 0 0 0 0 0 0 0 0 0 0 0 0 0 0 0 0 0 0 0 0 0 0 0 0 0 0 0 0 0 0 0 0 0 0
0 0 0 0 0 0 0 0 0 0 0 0 0 0 0 0 0 0 0 0 0 0 0 0 0 0 0 0 0 0 0 0 0 0 0 0 0 0 0 0 0 0 0 0
0 0 0 0 0 0 0 0 0 0 0 0 0 0 0 0 0 0 0 0 0 0 0 0 0 0 0 0 0 0 0 0 0 0 0 0 0 0 0 0 0 0 0 0
0 0 0 0 0 0 0 0 0 0 0 0 0 0 0 0 0 0 0 0 0 0 0 0 0 0 0 0 0 0 0 0 0 0 0 0 0 0 0 0 0 0 0 0
0 0 0 0 0 0 0 0 0 0 0 0 0 0 0 0 0 0 0 0 0 0 0 0 0 0 0 0 0 0 0 0 0 0 0 0 0 0 0 0 0 0 0 0
0 0 0 0 0 0 0 0 0 0 0 0 0 0 0 0 0 0 0 0 0 0 0 0 0 0 0 0 0 0 0 0 0 0 0 0 0 0 0 0 0 0 0 0
0 0 0 0 0 0 0 0 0 0 0 0 0 0 0 0 0 0 0 0 0 0 0 0 0 0 0 0 0 0 0 0 0 0 0 0 0 0 0 0 0 0 0 0
0 0 0 0 0 0 0 0 0 0 0 0 0 0 0 0 0 0 0 0 0 0 0 0 0 0 0 0 0 0 0 0 0 0 0 0 0 0 0 0 0 0 0 0
0 0 0 0 0 0 0 0 0 0 0 0 0 0 0 0 0 0 0 0 0 0 0 0 0 0 0 0 0 0 0 0 0 0 0 0 0 0 0 0 0 0 0 0
0 0 0 0 0 0 0 0 0 0 0 0 0 0 0 0 0 0 0 0 0 0 0 0 0 0 0 0 0 0 0 0 0 0 0 0 0 0 0 0 0 0 0 0
0 0 0 0 0 0 0 0 0 0 0 0 0 0 0 0 0 0 0 0 0 0 0 0 0 0 0 0 0 0 0 0 0 0 0 0 0 0 0 0 0 0 0 0
0 0 0 0 0 0 0 0 0 0 0 0 0 0 0 0 0 0 0 0 0 0 0 0 0 0 0 0 0 0 0 0 0 0 0 0 0 0 0 0 0 0 0 0
0 0 0 0 0 0 0 0 0 0 0 0 0 0 0 0 0 0 0 0 0 0 0 0 0 0 0 0 0 0 0 0 0 0 0 0 0 0 0 0 0 0 0 0
0 0 0 0 0 0 0 0 0 0 0 0 0 0 0 0 0 0 0 0 0 0 0 0 0 0 0 0 0 0 0 0 0 0 0 0 0 0 0 0 0 0 0 0
0 0 0 0 0 0 0 0 0 0 0 0 0 0 0 0 0 0 0 0 0 0 0 0 0 0 0 0 0 0 0 0 0 0 0 0 0 0 0 0 0 0 0 0
0 0 0 0 0 0 0 0 0 0 0 0 0 0 0 0 0 0 0 0 0 0 0 0 0 0 0 0 0 0 0 0 0 0 0 0 0 0 0 0 0 0 0 0
0 0 0 0 0 0 0 0 0 0 0 0 0 0 0 0 0 0 0 0 0 0 0 0 0 0 0 0 0 0 0 0 0 0 0 0 0 0 0 0 0 0 0 0
0 0 0 0 0 0 0 0 0 0 0 0 0 0 0 0 0 0 0 0 0 0 0 0 0 0 0 0 0 0 0 0 0 0 0 0 0 0 0 0 0 0 0 0
0 0 0 0 0 0 0 0 0 0 0 0 0 0 0 0 0 0 0 0 0 0 0 0 0 0 0 0 0 0 0 0 0 0 0 0 0 0 0 0 0 0 0 0
0 0 0 0 0 0 0 0 0 0 0 0 0 0 0 0 0 0 0 0 0 0 0 0 0 0 0 0 0 0 0 0 0 0 0 0 0 0 0 0 0 0 0 0
0 0 0 0 0 0 0 0 0 0 0 0 0 0 0 0 0 0 0 0 0 0 0 0 0 0 0 0 0 0 0 0 0 0 0 0 0 0 0 0 0 0 0 0
0 0 0 0 0 0 0 0 0 0 0 0 0 0 0 0 0 0 0 0 0 0 0 0 0 0 0 0 0 0 0 0 0 0 0 0 0 0 0 0 0 0 0 0
0 0 0 0 0 0 0 0 0 0 0 0 0 0 0 0 0 0 0 0 0 0 0 0 0 0 0 0 0 0 0 0 0 0 0 0 0 0 0 0 0 0 0 0
0 0 0 0 0 0 0 0 0 0 0 0 0 0 0 0 0 0 0 0 0 0 0 0 0 0 0 0 0 0 0 0 0 0 0 0 0 0 0 0 0 0 0 0
0 0 0 0 0 0 0 0 0 0 0 0 0 0 0 0 0 0 0 0 0 0 0 0 0 0 0 0 0 0 0 0 0 0 0 0 0 0 0 0 0 0 0 0
Height
5643 5646 5648 5649 5650 5651 5651 5651 5651 5650 5649 5648 5647 5646 5645 5642 5640 5639 5638 5638 5638 5639 5640 5641 5643 5646 5649 5653 5658 5664 5670 5676 5682 5688 5695 5701 5707 5713 5718 5724 5729 5733 5738 5741
5640 5642 5643 5644 5645 5645 5646 5646 5645 5645 5644 5643 5642 5641 5639 5636 5635 5634 5632 5631 5631 5631 5631 5632 5633 5635 5639 5642 5647 5652 5658 5664 5671 5677 5684 5690 5696 5702 5708 5713 5719 5724 5728 5732
5636 5639 5640 5641 5641 5642 5642 5642 5642 5642 5641 5639 5639 5638 5636 5633 5631 5629 5628 5626 5625 5624 5624 5624 5626 5628 5630 5633 5637 5642 5648 5654 5661 5667 5673 5680 5686 5692 5698 5704 5709 5714 5718 5722
5634 5636 5637 5638 5639 5639 5639 5639 5639 5638 5638 5637 5637 5635 5634 5631 5629 5627 5625 5623 5621 5620 5619 5619 5620 5622 5624 5627 5630 5635 5640 5646 5652 5658 5665 5671 5677 5684 5689 5694 5699 5704 5709 5713
5633 5634 5635 5636 5637 5637 5637 5637 5637 5636 5636 5636 5635 5633 5633 5630 5628 5625 5623 5621 5618 5617 5616 5615 5616 5618 5620 5623 5626 5630 5635 5640 5645 5651 5657 5663 5669 5675 5680 5685 5690 5695 5700 5704
5632 5633 5634 5634 5635 5635 5635 5636 5636 5635 5635 5636 5634 5633 5632 5629 5627 5625 5622 5620 5617 5616 5615 5615 5615 5617 5619 5621 5624 5628 5632 5636 5641 5646 5651 5657 5662 5667 5672 5677 5682 5686 5691 5695
5632 5633 5633 5634 5634 5635 5635 5636 5636 5636 5635 5635 5634 5632 5632 5629 5627 5625 5623 5620 5618 5617 5616 5616 5616 5618 5619 5622 5624 5627 5631 5634 5638 5643 5647 5652 5657 5661 5666 5670 5674 5678 5682 5686
5633 5634 5634 5634 5634 5634 5635 5636 5637 5637 5636 5635 5634 5632 5632 5630 5628 5626 5625 5623 5621 5619 5619 5619 5619 5620 5621 5623 5625 5628 5631 5634 5637 5641 5645 5649 5653 5656 5660 5663 5667 5671 5674 5677
5634 5635 5635 5634 5635 5635 5635 5635 5637 5637 5636 5636 5635 5635 5633 5632 5630 5629 5627 5626 5625 5623 5622 5622 5622 5623 5624 5625 5628 5630 5632 5634 5637 5640 5643 5646 5649 5652 5655 5658 5661 5664 5666 5669
5635 5636 5636 5637 5637 5637 5637 5637 5638 5638 5638 5637 5637 5636 5635 5634 5633 5632 5630 5629 5628 5627 5626 5626 5626 5626 5627 5628 5630 5632 5633 5635 5637 5639 5642 5644 5647 5649 5651 5654 5656 5658 5660 5662
5637 5638 5639 5639 5639 5639 5640 5640 5640 5640 5640 5639 5639 5640 5637 5636 5635 5634 5633 5632 5631 5630 5630 5630 5630 5630 5630 5631 5632 5633 5634 5636 5637 5639 5641 5643 5645 5646 5648 5649 5651 5652 5654 5656
5640 5641 5641 5642 5642 5642 5642 5642 5642 5642 5642 5641 5640 5644 5639 5639 5638 5637 5636 5635 5634 5633 5633 5632 5632 5633 5633 5633 5634 5635 5635 5637 5638 5639 5640 5641 5642 5643 5644 5645 5646 5647 5648 5649
5643 5644 5645 5645 5647 5646 5645 5644 5644 5644 5644 5643 5643 5646 5642 5641 5640 5639 5639 5638 5637 5636 5636 5635 5635 5635 5635 5635 5635 5636 5636 5636 5637 5638 5638 5639 5639 5640 5640 5641 5641 5641 5641 5641
5646 5647 5648 5648 5647 5647 5647 5647 5646 5646 5646 5646 5646 5646 5645 5644 5643 5642 5641 5640 5640 5639 5638 5638 5637 5637 5636 5636 5636 5636 5636 5636 5636 5636 5636 5635 5635 5635 5635 5635 5634 5634 5634 5633
5650 5650 5650 5650 5650 5649 5649 5649 5649 5648 5648 5648 5648 5647 5647 5646 5645 5644 5643 5642 5642 5641 5640 5640 5639 5638 5637 5637 5636 5635 5634 5634 5633 5633 5632 5631 5630 5629 5628 5627 5626 5625 5625 5624
5654 5654 5653 5653 5653 5652 5652 5651 5651 5651 5650 5650 5649 5649 5648 5647 5647 5646 5645 5644 5643 5642 5641 5640 5639 5638 5637 5636 5635 5633 5632 5631 5630 5628 5627 5626 5624 5622 5621 5619 5617 5616 5614 5613
5656 5656 5656 5656 5655 5655 5655 5654 5653 5652 5652 5651 5651 5651 5649 5649 5648 5647 5645 5644 5643 5642 5641 5639 5638 5637 5635 5634 5632 5631 5629 5627 5625 5623 5621 5619 5617 5615 5612 5610 5608 5605 5603 5600
5659 5658 5658 5658 5658 5657 5658 5655 5654 5654 5653 5652 5651 5651 5650 5649 5648 5646 5645 5644 5642 5641 5639 5638 5636 5634 5633 5631 5629 5626 5624 5621 5619 5616 5613 5610 5607 5605 5602 5599 5596 5593 5590 5586
5660 5660 5660 5659 5659 5658 5658 5656 5655 5654 5654 5652 5651 5650 5649 5648 5647 5646 5644 5642 5641 5639 5637 5635 5633 5631 5629 5626 5624 5621 5618 5614 5611 5607 5604 5600 5597 5593 5589 5586 5582 5578 5573 5569
5661 5661 5661 5659 5658 5658 5659 5657 5655 5655 5654 5652 5651 5649 5648 5647 5646 5645 5642 5641 5638 5636 5634 5632 5630 5627 5624 5621 5618 5614 5610 5606 5602 5598 5594 5589 5585 5580 5575 5570 5565 5560 5555 5549
5661 5661 5660 5659 5658 5658 5657 5656 5655 5655 5654 5651 5649 5648 5646 5645 5644 5642 5639 5637 5635 5633 5630 5628 5625 5622 5618 5615 5611 5606 5602 5597 5593 5588 5583 5577 5572 5566 5560 5554 5547 5540 5535 5528
5660 5659 5659 5658 5657 5658 5655 5654 5653 5653 5650 5649 5647 5646 5644 5642 5640 5638 5636 5633 5631 5629 5626 5623 5619 5615 5611 5607 5603 5598 5593 5588 5582 5577 5571 5565 5558 5551 5544 5536 5529 5521 5513 5506
5658 5658 5656 5656 5657 5654 5653 5652 5651 5649 5648 5646 5644 5643 5641 5639 5637 5634 5632 5629 5627 5624 5620 5616 5613 5608 5604 5599 5594 5589 5583 5578 5572 5565 5558 5551 5543 5535 5526 5518 5509 5501 5492 5483
5656 5654 5653 5653 5653 5651 5650 5648 5647 5646 5645 5643 5641 5639 5637 5635 5633 5630 5627 5624 5621 5618 5614 5610 5605 5601 5596 5590 5584 5579 5573 5566 5560 5552 5545 5537 5528 5519 5509 5499 5489 5480 5471 5462
5652 5650 5650 5649 5649 5648 5647 5645 5644 5642 5640 5639 5637 5635 5632 5630 5627 5625 5621 5618 5615 5611 5606 5602 5597 5592 5586 5580 5574 5568 5561 5555 5547 5539 5531 5522 5512 5502 5491 5481 5469 5460 5450 5440
5648 5646 5645 5646 5645 5644 5643 5641 5639 5637 5636 5634 5631 5629 5626 5624 5621 5618 5615 5611 5607 5603 5598 5593 5588 5582 5576 5570 5563 5556 5549 5542 5534 5525 5516 5506 5495 5485 5474 5463 5453 5441 5430 5421
Wind_Speed
23 22 22 22 23 24 25 26 26 27 28 28 28 27 28 29 29 30 31 33 35 37 38 41 43 45 49 52 54 56 57 57 57 57 57 55 55 55 54 53 51 51 50 49
18 18 18 18 18 19 19 20 21 22 23 21 20 19 20 21 21 21 22 24 26 28 31 33 36 38 41 44 47 50 52 54 54 55 54 55 54 54 54 54 53 52 51 50
15 15 15 15 16 17 17 17 17 18 17 17 16 15 15 16 17 17 17 18 18 20 23 25 28 31 33 37 40 43 46 49 50 51 51 51 52 51 51 51 51 51 49 49
13 13 13 13 14 14 14 14 14 13 12 12 12 11 10 11 11 12 12 12 13 14 16 17 21 23 26 30 32 36 38 40 43 45 47 48 48 48 47 48 49 50 49 48
10 11 10 10 10 10 10 11 10 10 9 8 9 8 7 8 8 8 7 7 7 8 8 9 12 15 17 21 24 27 31 33 35 37 40 43 44 45 45 45 46 47 47 47
7 8 8 7 7 7 8 7 7 6 6 6 6 6 5 6 5 6 6 5 3 2 2 3 5 8 10 12 15 18 22 26 28 31 33 36 37 39 41 42 43 44 44 46
5 5 5 5 4 4 4 4 4 4 5 4 4 4 3 4 4 3 5 6 5 3 2 2 3 5 6 7 9 11 15 19 21 24 27 29 30 32 34 37 39 39 41 42
4 3 3 3 2 2 2 2 2 2 2 1 1 2 4 5 5 5 6 7 7 6 5 5 5 6 5 6 7 8 9 12 14 16 20 24 26 26 28 31 33 36 38 40
4 4 3 2 2 2 2 2 2 2 2 3 5 5 5 6 7 7 7 8 8 8 8 7 6 6 6 6 7 6 7 9 11 13 15 18 20 23 25 27 28 30 32 36
5 5 5 5 6 6 6 6 5 5 5 5 6 5 5 6 7 8 8 9 9 8 8 8 8 8 8 7 6 6 6 7 9 11 13 14 17 19 21 23 25 27 29 31
7 8 8 8 8 7 7 6 6 5 5 6 6 6 6 7 7 8 8 8 8 7 6 6 6 6 6 5 4 4 3 5 7 9 11 13 14 15 17 21 23 26 28 30
10 10 9 8 7 7 7 7 6 6 6 6 7 7 7 7 8 8 8 8 7 6 6 5 4 4 3 3 3 2 1 3 5 8 10 12 14 16 18 20 23 25 27 29
10 9 8 7 7 7 6 6 6 6 6 6 7 7 7 7 8 8 7 7 7 7 6 6 5 4 3 2 1 1 2 4 6 8 11 12 15 17 19 20 22 24 26 28
10 10 8 8 8 7 6 6 6 6 6 6 6 6 5 5 6 6 6 6 6 5 5 5 4 3 3 2 3 4 5 6 7 9 12 14 16 18 20 22 24 26 28 30
10 9 8 8 7 7 6 6 6 5 5 4 4 4 4 4 4 5 5 5 4 4 4 4 4 4 5 6 6 7 8 9 11 13 15 17 18 20 22 24 26 28 30 32
8 8 7 7 7 6 5 4 4 4 3 3 3 3 3 3 3 4 4 4 4 5 6 6 7 8 9 10 11 11 13 14 16 18 19 21 22 24 26 28 30 32 34 36
6 5 5 5 5 4 4 3 3 3 2 2 2 2 2 3 4 5 6 7 7 8 8 9 11 11 12 13 14 16 18 20 21 23 24 26 28 29 31 32 34 36 39 40
3 2 3 3 3 3 3 3 2 2 2 2 3 4 4 6 7 8 8 9 9 10 11 12 13 14 15 16 18 19 21 23 25 27 29 30 32 34 36 38 40 43 45 47
1 2 2 2 2 2 3 3 3 3 4 4 5 7 8 9 9 10 10 11 12 13 14 15 16 17 18 19 21 23 25 27 29 30 32 34 36 38 41 44 46 49 51 54
4 4 5 5 5 4 5 5 5 5 5 7 8 9 10 10 11 12 13 14 15 15 17 18 19 20 22 23 26 28 30 32 33 35 36 39 41 43 46 48 51 54 56 59
6 7 7 7 7 7 7 7 8 8 9 10 11 11 12 12 13 14 15 15 16 17 19 21 22 24 26 28 31 33 34 36 37 39 41 43 46 48 51 54 57 59 61 63
9 9 9 9 9 9 9 10 10 11 11 12 13 13 13 14 15 15 16 17 19 21 22 24 26 28 30 32 34 36 38 39 41 43 46 49 51 54 56 58 60 63 65 66
11 11 11 11 11 11 11 12 12 13 14 15 15 15 16 16 17 19 20 21 23 24 26 28 30 32 34 36 38 40 42 43 45 48 50 53 56 58 60 62 63 64 65 65
13 14 14 14 13 14 14 14 15 16 16 17 18 18 19 20 21 22 23 24 26 28 30 31 33 35 37 39 42 43 45 46 49 51 54 57 59 61 62 64 65 65 64 65
16 17 17 16 17 16 17 18 18 18 19 20 21 22 22 23 24 25 27 28 30 31 33 35 37 39 41 43 45 46 48 50 52 54 57 60 62 63 64 65 65 65 65 66
19 20 19 18 19 19 19 20 21 22 23 23 24 24 25 26 27 29 30 32 33 35 36 38 40 42 44 46 48 49 51 53 55 57 60 62 64 65 66 65 64 65 65 64
Wind_Direction
243 247 250 255 259 262 264 266 268 271 274 275 275 275 273 272 271 269 266 263 261 259 257 255 252 250 249 248 246 243 242 241 240 238 238 238 238 237 238 238 238 238 238 238
237 243 248 253 258 262 266 268 269 271 274 276 278 278 276 274 273 271 271 267 263 259 257 255 251 249 247 246 245 242 241 240 239 238 238 238 238 238 238 239 238 238 238 238
233 241 246 252 259 263 266 267 268 269 271 277 280 280 280 279 279 278 276 275 271 267 261 256 251 249 247 244 242 240 240 239 239 238 237 237 238 238 238 238 237 237 237 238
232 237 245 249 254 259 264 266 268 268 271 276 282 287 286 286 288 286 283 281 277 273 265 258 252 250 247 242 239 238 237 237 237 237 237 237 236 236 236 236 235 235 236 238
226 230 238 247 253 257 261 263 265 266 268 275 285 293 297 296 299 303 304 298 287 287 277 263 249 246 243 237 236 234 233 232 233 233 233 234 235 235 235 235 236 236 237 239
212 220 231 243 252 259 260 260 260 258 265 280 293 305 312 312 318 329 340 345 330 317 293 256 235 232 227 222 223 227 225 227 230 231 231 232 233 235 237 237 237 238 239 241
199 216 230 238 243 245 244 243 248 261 273 289 299 315 345 354 358 6 19 32 40 51 60 101 157 168 189 201 211 215 218 222 225 228 228 230 232 236 236 236 238 241 242 242
185 197 203 211 221 219 216 222 236 264 296 325 3 59 60 56 59 62 54 56 59 65 81 106 122 138 149 168 178 193 206 212 217 222 225 227 231 235 237 238 240 242 244 242
143 146 148 142 133 136 152 147 138 110 69 76 85 87 74 70 64 65 67 65 66 76 83 91 100 121 140 153 165 184 198 203 213 221 225 228 234 237 238 239 241 242 244 243
127 124 122 114 102 95 97 104 105 88 78 80 84 78 65 67 70 71 70 68 73 86 90 95 98 103 121 138 148 170 183 203 213 218 221 229 235 237 239 243 245 245 244 243
107 108 112 109 100 89 86 93 91 76 75 80 75 64 60 68 67 65 68 75 80 85 86 94 98 103 110 117 126 141 167 186 201 216 226 233 235 238 243 245 248 248 246 246
104 105 105 101 89 88 88 85 81 78 79 77 73 71 72 68 63 65 65 70 79 82 84 92 102 110 111 109 111 120 174 222 234 242 246 250 248 248 249 249 250 251 252 252
103 103 99 95 89 90 91 86 81 82 81 79 79 82 76 68 70 69 67 70 74 82 85 85 87 97 97 92 76 299 272 268 268 267 263 264 262 260 259 258 259 259 259 259
98 94 91 90 90 91 88 86 84 86 84 81 81 83 75 65 65 66 65 64 66 65 63 61 53 51 44 14 343 319 300 285 278 277 277 277 275 271 269 268 266 265 265 265
96 91 86 85 86 83 80 79 80 84 83 79 78 76 69 56 54 54 47 41 37 33 26 12 5 358 345 334 324 317 309 299 291 288 285 284 283 282 280 277 275 274 272 272
90 84 77 74 78 77 76 73 69 67 65 62 59 59 48 34 29 16 9 3 353 343 337 332 326 321 318 316 314 309 305 301 297 295 294 292 291 290 288 286 284 282 280 278
82 75 68 60 60 63 60 63 60 53 48 37 12 356 344 338 337 334 331 330 324 320 317 316 316 314 311 308 306 304 303 302 299 298 296 294 293 292 290 289 287 286 285 283
70 55 42 40 42 35 47 38 29 6 345 336 330 324 319 318 317 317 317 316 317 318 317 315 314 312 309 308 307 305 303 301 300 299 297 295 293 292 291 289 288 287 286 285
337 325 329 340 347 352 341 335 325 326 327 318 316 314 313 310 310 310 309 311 313 314 312 311 310 308 307 306 305 304 304 303 302 301 300 298 296 294 293 292 290 289 288 287
282 290 302 305 309 310 308 307 306 309 315 312 313 312 310 310 308 306 306 308 309 309 308 307 308 307 306 306 306 305 305 304 304 303 302 300 299 298 297 296 294 292 291 290
284 290 294 296 299 302 299 301 304 304 306 307 310 310 309 309 307 306 306 305 306 306 306 307 307 307 306 307 307 307 306 306 305 305 304 303 302 301 300 299 297 296 294 292
282 284 284 287 293 294 294 297 299 300 303 305 306 306 306 305 305 304 305 305 305 306 306 307 307 307 307 307 308 308 307 307 306 305 305 304 304 303 302 301 299 298 296 294
280 280 281 283 286 287 289 291 293 296 299 300 301 301 301 302 302 302 302 303 304 305 306 306 306 306 307 308 308 308 308 307 307 306 306 306 305 305 304 303 301 300 298 296
276 276 277 279 282 284 286 288 291 293 296 297 297 297 298 299 300 300 301 303 304 305 306 306 307 307 308 308 308 308 308 307 307 307 307 308 307 307 307 305 304 302 300 298
274 275 276 278 279 282 286 287 288 290 292 294 293 294 295 296 297 298 299 301 303 304 305 306 307 308 308 308 308 308 308 308 309 309 309 309 309 309 308 307 306 304 302 300
272 274 277 279 279 281 284 285 288 290 292 292 293 294 295 296 296 298 299 301 303 304 305 306 306 307 308 308 308 308 309 309 310 310 311 311 311 311 310 308 307 305 304 303